Time,TemperatureF,DewpointF,PressureIn,WindDirection,WindDirectionDegrees,WindSpeedMPH,WindSpeedGustMPH,Humidity,HourlyPrecipIn,Conditions,Clouds,dailyrainin,SoftwareType,DateUTC
2013-10-09 00:01:00,74.6,71.1,29.94,NNE,26,2.3,3.5,89,0.00,SCT,,0.00,WeatherDisplay:10.37,2013-10-09 04:01:00,
2013-10-09 00:06:00,74.5,71.0,29.94,North,4,1.2,2.3,89,0.00,CLR,,0.00,WeatherDisplay:10.37,2013-10-09 04:06:00,
2013-10-09 00:11:00,74.4,70.9,29.94,NE,41,2.5,3.5,89,0.00,CLR,,0.00,WeatherDisplay:10.37,2013-10-09 04:11:00,
2013-10-09 00:16:00,74.3,71.2,29.93,NE,49,3.6,5.8,90,0.00,CLR,,0.00,WeatherDisplay:10.37,2013-10-09 04:16:00,
2013-10-09 00:21:00,74.2,71.1,29.93,North,359,1.8,3.5,90,0.00,CLR,,0.00,WeatherDisplay:10.37,2013-10-09 04:21:00,
2013-10-09 00:26:00,74.2,71.1,29.93,NNE,18,1.4,3.5,90,0.00,CLR,,0.00,WeatherDisplay:10.37,2013-10-09 04:26:00,
2013-10-09 00:31:00,74.2,71.1,29.93,North,1,0.5,2.3,90,0.00,CLR,,0.00,WeatherDisplay:10.37,2013-10-09 04:31:00,
2013-10-09 00:36:00,74.2,71.1,29.93,NNE,18,1.8,3.5,90,0.00,CLR,,0.00,WeatherDisplay:10.37,2013-10-09 04:36:00,
2013-10-09 00:41:00,74.0,70.9,29.93,NNW,333,1.5,4.6,90,0.00,CLR,,0.00,WeatherDisplay:10.37,2013-10-09 04:41:00,
2013-10-09 00:46:00,74.0,70.9,29.93,NNE,20,1.1,3.5,90,0.00,CLR,,0.00,WeatherDisplay:10.37,2013-10-09 04:46:00,
2013-10-09 00:51:00,73.9,70.8,29.93,North,4,2.5,5.8,90,0.00,CLR,,0.00,WeatherDisplay:10.37,2013-10-09 04:51:00,
2013-10-09 00:56:00,73.8,71.0,29.93,NNE,14,2.9,5.8,91,0.00,CLR,,0.00,WeatherDisplay:10.37,2013-10-09 04:56:00,
2013-10-09 01:01:00,73.9,70.8,29.93,NNE,26,2.4,3.5,90,0.00,CLR,,0.00,WeatherDisplay:10.37,2013-10-09 05:01:00,
2013-10-09 01:06:00,73.9,70.8,29.93,NE,46,2.9,4.6,90,0.00,CLR,,0.00,WeatherDisplay:10.37,2013-10-09 05:06:00,
2013-10-09 01:11:00,73.9,70.8,29.93,NE,47,3.0,6.0,90,0.00,CLR,,0.00,WeatherDisplay:10.37,2013-10-09 05:11:00,
2013-10-09 01:16:00,73.8,70.7,29.93,ENE,65,3.6,6.9,90,0.00,CLR,,0.00,WeatherDisplay:10.37,2013-10-09 05:16:00,
2013-10-09 01:21:00,73.7,70.6,29.93,ENE,57,5.3,8.1,90,0.00,CLR,,0.00,WeatherDisplay:10.37,2013-10-09 05:21:00,
2013-10-09 01:26:00,73.7,70.6,29.93,NNE,33,5.1,9.2,90,0.00,CLR,,0.00,WeatherDisplay:10.37,2013-10-09 05:26:00,
2013-10-09 01:31:00,73.7,70.6,29.93,NE,34,4.4,6.0,90,0.00,CLR,,0.00,WeatherDisplay:10.37,2013-10-09 05:31:00,
2013-10-09 01:36:00,73.7,70.6,29.93,NNE,20,4.2,9.0,90,0.00,CLR,,0.00,WeatherDisplay:10.37,2013-10-09 05:36:00,
2013-10-09 01:41:00,73.6,70.5,29.93,NE,48,5.5,8.1,90,0.00,CLR,,0.00,WeatherDisplay:10.37,2013-10-09 05:41:00,
2013-10-09 01:46:00,73.6,70.5,29.93,NE,46,2.4,4.6,90,0.00,CLR,,0.00,WeatherDisplay:10.37,2013-10-09 05:46:00,
2013-10-09 01:51:00,73.6,70.5,29.93,NNE,18,1.6,5.8,90,0.00,CLR,,0.00,WeatherDisplay:10.37,2013-10-09 05:51:00,
2013-10-09 01:56:00,73.4,70.3,29.93,NNE,32,3.3,5.0,90,0.00,CLR,,0.00,WeatherDisplay:10.37,2013-10-09 05:56:00,
2013-10-09 02:01:00,73.3,70.5,29.93,NE,48,4.4,5.8,91,0.00,CLR,,0.00,WeatherDisplay:10.37,2013-10-09 06:01:00,
2013-10-09 02:06:00,73.3,70.5,29.93,NNE,30,2.0,6.0,91,0.00,CLR,,0.00,WeatherDisplay:10.37,2013-10-09 06:06:00,
2013-10-09 02:11:00,73.3,70.5,29.94,NE,34,3.3,10.0,91,0.00,CLR,,0.00,WeatherDisplay:10.37,2013-10-09 06:11:00,
2013-10-09 02:16:00,73.2,70.4,29.94,NE,44,4.5,6.9,91,0.00,CLR,,0.00,WeatherDisplay:10.37,2013-10-09 06:16:00,
2013-10-09 02:21:00,73.1,70.3,29.94,NNE,14,2.9,6.9,91,0.00,CLR,,0.00,WeatherDisplay:10.37,2013-10-09 06:21:00,
2013-10-09 02:26:00,73.1,70.3,29.94,NE,49,5.8,11.5,91,0.00,CLR,,0.00,WeatherDisplay:10.37,2013-10-09 06:26:00,
2013-10-09 02:31:00,73.3,70.5,29.93,NNW,345,0.4,2.3,91,0.00,CLR,,0.00,WeatherDisplay:10.37,2013-10-09 06:31:00,
2013-10-09 02:36:00,73.3,70.5,29.93,NE,51,1.1,3.5,91,0.00,CLR,,0.00,WeatherDisplay:10.37,2013-10-09 06:36:00,
2013-10-09 02:41:00,73.3,70.2,29.93,NE,55,2.3,5.8,90,0.00,CLR,,0.00,WeatherDisplay:10.37,2013-10-09 06:41:00,
2013-10-09 02:46:00,73.4,70.3,29.93,NNE,24,1.1,3.5,90,0.00,CLR,,0.00,WeatherDisplay:10.37,2013-10-09 06:46:00,
2013-10-09 02:51:00,73.5,70.4,29.93,NNE,18,3.0,5.8,90,0.00,CLR,,0.00,WeatherDisplay:10.37,2013-10-09 06:51:00,
2013-10-09 02:56:00,73.5,70.1,29.93,NE,34,4.7,10.4,89,0.00,CLR,,0.00,WeatherDisplay:10.37,2013-10-09 06:56:00,
2013-10-09 03:01:00,73.6,70.2,29.93,North,357,3.1,6.9,89,0.00,CLR,,0.00,WeatherDisplay:10.37,2013-10-09 07:01:00,
2013-10-09 03:06:00,73.6,70.2,29.93,NE,40,4.6,9.2,89,0.00,CLR,,0.00,WeatherDisplay:10.37,2013-10-09 07:06:00,
2013-10-09 03:11:00,73.5,70.1,29.93,NE,36,5.4,9.2,89,0.00,CLR,,0.00,WeatherDisplay:10.37,2013-10-09 07:11:00,
2013-10-09 03:16:00,73.6,70.2,29.92,NE,36,4.2,5.8,89,0.00,CLR,,0.00,WeatherDisplay:10.37,2013-10-09 07:16:00,
2013-10-09 03:21:00,73.7,70.3,29.93,NNE,26,1.7,3.5,89,0.00,CLR,,0.00,WeatherDisplay:10.37,2013-10-09 07:21:00,
2013-10-09 03:26:00,73.6,70.2,29.93,NNE,32,2.9,5.0,89,0.00,CLR,,0.00,WeatherDisplay:10.37,2013-10-09 07:26:00,
2013-10-09 03:31:00,73.6,70.2,29.93,NNE,29,3.6,7.0,89,0.00,CLR,,0.00,WeatherDisplay:10.37,2013-10-09 07:31:00,
2013-10-09 03:36:00,73.6,69.8,29.92,NNE,29,3.4,5.8,88,0.00,CLR,,0.00,WeatherDisplay:10.37,2013-10-09 07:36:00,
2013-10-09 03:41:00,73.6,69.8,29.92,NE,34,4.5,6.9,88,0.00,CLR,,0.00,WeatherDisplay:10.37,2013-10-09 07:41:00,
2013-10-09 03:46:00,73.7,69.9,29.92,NNE,13,1.9,5.0,88,0.00,CLR,,0.00,WeatherDisplay:10.37,2013-10-09 07:46:00,
2013-10-09 03:51:00,73.7,69.9,29.92,NE,50,1.3,3.0,88,0.00,BKN,,0.00,WeatherDisplay:10.37,2013-10-09 07:51:00,
2013-10-09 03:56:00,73.8,70.0,29.92,NE,40,2.4,3.5,88,0.00,BKN,,0.00,WeatherDisplay:10.37,2013-10-09 07:56:00,
2013-10-09 04:01:00,73.7,69.9,29.92,NNW,341,1.8,4.0,88,0.00,BKN,,0.00,WeatherDisplay:10.37,2013-10-09 08:01:00,
2013-10-09 04:06:00,73.6,69.8,29.92,NE,34,2.9,4.6,88,0.00,BKN,,0.00,WeatherDisplay:10.37,2013-10-09 08:06:00,
2013-10-09 04:11:00,73.6,69.8,29.92,NE,41,3.3,6.0,88,0.00,BKN,,0.00,WeatherDisplay:10.37,2013-10-09 08:11:00,
2013-10-09 04:16:00,73.6,69.8,29.92,NE,37,3.5,5.8,88,0.00,BKN,,0.00,WeatherDisplay:10.37,2013-10-09 08:16:00,
2013-10-09 04:21:00,73.6,69.8,29.92,NNE,16,4.2,5.8,88,0.00,BKN,,0.00,WeatherDisplay:10.37,2013-10-09 08:21:00,
2013-10-09 04:26:00,73.6,69.8,29.92,NE,44,1.7,3.5,88,0.00,BKN,,0.00,WeatherDisplay:10.37,2013-10-09 08:26:00,
2013-10-09 04:31:00,73.6,69.8,29.92,NE,34,1.1,2.3,88,0.00,BKN,,0.00,WeatherDisplay:10.37,2013-10-09 08:31:00,
2013-10-09 04:36:00,73.6,69.8,29.92,NNE,29,1.9,3.5,88,0.00,BKN,,0.00,WeatherDisplay:10.37,2013-10-09 08:36:00,
2013-10-09 04:41:00,73.6,69.8,29.92,ENE,57,3.2,5.8,88,0.00,BKN,,0.00,WeatherDisplay:10.37,2013-10-09 08:41:00,
2013-10-09 04:46:00,73.6,69.8,29.92,NNE,33,1.7,5.0,88,0.00,BKN,,0.00,WeatherDisplay:10.37,2013-10-09 08:46:00,
2013-10-09 04:51:00,73.5,69.7,29.92,NNE,25,5.8,8.1,88,0.00,BKN,,0.00,WeatherDisplay:10.37,2013-10-09 08:51:00,
2013-10-09 04:56:00,73.6,69.8,29.92,NNE,18,3.2,7.0,88,0.00,BKN,,0.00,WeatherDisplay:10.37,2013-10-09 08:56:00,
2013-10-09 05:01:00,73.7,69.6,29.93,NNW,335,4.9,9.2,87,0.00,OVC,,0.00,WeatherDisplay:10.37,2013-10-09 09:01:00,
2013-10-09 05:06:00,73.7,69.6,29.92,NNE,23,3.4,4.6,87,0.00,OVC,,0.00,WeatherDisplay:10.37,2013-10-09 09:06:00,
2013-10-09 05:11:00,73.6,69.8,29.92,NE,34,0.5,2.0,88,0.00,OVC,,0.00,WeatherDisplay:10.37,2013-10-09 09:11:00,
2013-10-09 05:16:00,73.6,69.8,29.93,NNW,335,1.9,5.8,88,0.00,OVC,,0.00,WeatherDisplay:10.37,2013-10-09 09:16:00,
2013-10-09 05:21:00,73.5,69.4,29.93,NNE,29,4.9,8.1,87,0.00,OVC,,0.00,WeatherDisplay:10.37,2013-10-09 09:21:00,
2013-10-09 05:26:00,73.5,69.4,29.93,North,351,3.5,4.6,87,0.00,OVC,,0.00,WeatherDisplay:10.37,2013-10-09 09:26:00,
2013-10-09 05:31:00,73.6,69.5,29.93,NNE,25,4.8,5.8,87,0.00,OVC,,0.00,WeatherDisplay:10.37,2013-10-09 09:31:00,
2013-10-09 05:36:00,73.5,69.4,29.93,North,8,3.4,4.6,87,0.00,OVC,,0.00,WeatherDisplay:10.37,2013-10-09 09:36:00,
2013-10-09 05:41:00,73.5,69.4,29.93,NNE,30,3.1,9.2,87,0.00,OVC,,0.00,WeatherDisplay:10.37,2013-10-09 09:41:00,
2013-10-09 05:46:00,73.5,69.4,29.93,NNE,19,1.6,4.6,87,0.00,OVC,,0.00,WeatherDisplay:10.37,2013-10-09 09:46:00,
2013-10-09 05:51:00,73.6,69.2,29.93,NE,37,4.8,6.9,86,0.00,OVC,,0.00,WeatherDisplay:10.37,2013-10-09 09:51:00,
2013-10-09 05:56:00,73.6,69.2,29.93,NNE,24,3.3,5.8,86,0.00,OVC,,0.00,WeatherDisplay:10.37,2013-10-09 09:56:00,
2013-10-09 06:01:00,73.6,69.2,29.93,NNE,22,2.7,3.5,86,0.00,OVC,,0.00,WeatherDisplay:10.37,2013-10-09 10:01:00,
2013-10-09 06:06:00,73.6,69.2,29.93,NNW,345,4.2,5.8,86,0.00,OVC,,0.00,WeatherDisplay:10.37,2013-10-09 10:06:00,
2013-10-09 06:11:00,73.5,69.1,29.94,NW,325,3.6,5.8,86,0.00,OVC,,0.00,WeatherDisplay:10.37,2013-10-09 10:11:00,
2013-10-09 06:16:00,73.4,69.0,29.94,NNE,20,3.2,5.8,86,0.00,OVC,,0.00,WeatherDisplay:10.37,2013-10-09 10:16:00,
2013-10-09 06:21:00,73.3,69.2,29.94,North,4,3.6,4.6,87,0.00,OVC,,0.00,WeatherDisplay:10.37,2013-10-09 10:21:00,
2013-10-09 06:26:00,73.3,69.2,29.94,NNE,29,3.2,6.0,87,0.00,OVC,,0.00,WeatherDisplay:10.37,2013-10-09 10:26:00,
2013-10-09 06:31:00,73.4,69.3,29.94,NNE,23,3.6,6.9,87,0.00,OVC,,0.00,WeatherDisplay:10.37,2013-10-09 10:31:00,
2013-10-09 06:36:00,73.5,69.1,29.94,NNW,335,3.2,5.8,86,0.00,OVC,,0.00,WeatherDisplay:10.37,2013-10-09 10:36:00,
2013-10-09 06:41:00,73.4,69.0,29.95,NE,34,3.6,6.0,86,0.00,OVC,,0.00,WeatherDisplay:10.37,2013-10-09 10:41:00,
2013-10-09 06:46:00,73.4,69.0,29.95,NNE,22,5.2,6.9,86,0.00,OVC,,0.00,WeatherDisplay:10.37,2013-10-09 10:46:00,
2013-10-09 06:51:00,73.4,69.0,29.95,North,11,3.3,6.9,86,0.00,OVC,,0.00,WeatherDisplay:10.37,2013-10-09 10:51:00,
2013-10-09 06:56:00,73.5,68.7,29.96,NE,43,4.2,6.9,85,0.00,OVC,,0.00,WeatherDisplay:10.37,2013-10-09 10:56:00,
2013-10-09 07:01:00,73.6,68.8,29.96,North,4,2.9,3.5,85,0.00,OVC,,0.00,WeatherDisplay:10.37,2013-10-09 11:01:00,
2013-10-09 07:06:00,73.5,69.1,29.96,NNE,27,3.8,7.0,86,0.00,OVC,,0.00,WeatherDisplay:10.37,2013-10-09 11:06:00,
2013-10-09 07:11:00,73.3,68.9,29.96,NE,43,3.3,4.6,86,0.00,OVC,,0.00,WeatherDisplay:10.37,2013-10-09 11:11:00,
2013-10-09 07:16:00,73.2,68.8,29.96,North,349,1.4,3.5,86,0.00,OVC,,0.00,WeatherDisplay:10.37,2013-10-09 11:16:00,
2013-10-09 07:21:00,73.1,69.0,29.96,NE,40,3.5,6.0,87,0.00,OVC,,0.00,WeatherDisplay:10.37,2013-10-09 11:21:00,
2013-10-09 07:26:00,73.1,69.0,29.96,NE,44,2.8,11.0,87,0.00,OVC,,0.00,WeatherDisplay:10.37,2013-10-09 11:26:00,
2013-10-09 07:31:00,73.1,69.0,29.96,North,357,5.5,9.2,87,0.00,OVC,,0.00,WeatherDisplay:10.37,2013-10-09 11:31:00,
2013-10-09 07:36:00,73.1,69.0,29.97,NNE,30,3.2,5.0,87,0.00,OVC,,0.00,WeatherDisplay:10.37,2013-10-09 11:36:00,
2013-10-09 07:41:00,73.1,68.7,29.97,NNE,27,4.6,6.9,86,0.00,OVC,,0.00,WeatherDisplay:10.37,2013-10-09 11:41:00,
2013-10-09 07:46:00,73.1,68.7,29.97,NNE,14,1.7,5.8,86,0.00,OVC,,0.00,WeatherDisplay:10.37,2013-10-09 11:46:00,
2013-10-09 07:51:00,73.2,68.8,29.97,NE,49,2.1,3.5,86,0.00,OVC,,0.00,WeatherDisplay:10.37,2013-10-09 11:51:00,
2013-10-09 07:56:00,73.2,68.8,29.97,NNE,22,0.7,5.8,86,0.00,OVC,,0.00,WeatherDisplay:10.37,2013-10-09 11:56:00,
2013-10-09 08:01:00,73.2,68.8,29.97,NNE,22,3.6,8.1,86,0.00,OVC,,0.00,WeatherDisplay:10.37,2013-10-09 12:01:00,
2013-10-09 08:03:00,73.3,68.9,29.97,NNE,16,3.5,5.8,86,0.00,OVC,,0.00,WeatherDisplay:10.37,2013-10-09 12:03:00,
2013-10-09 08:08:00,73.3,68.9,29.97,North,5,3.0,5.8,86,0.00,OVC,,0.00,WeatherDisplay:10.37,2013-10-09 12:08:00,
2013-10-09 08:13:00,73.3,68.9,29.97,North,358,3.0,7.0,86,0.00,OVC,,0.00,WeatherDisplay:10.37,2013-10-09 12:13:00,
2013-10-09 08:18:00,73.3,68.9,29.97,NNE,22,5.1,8.1,86,0.00,OVC,,0.00,WeatherDisplay:10.37,2013-10-09 12:18:00,
2013-10-09 08:23:00,73.3,68.9,29.98,NNE,19,2.8,3.5,86,0.00,OVC,,0.00,WeatherDisplay:10.37,2013-10-09 12:23:00,
2013-10-09 08:28:00,73.2,68.8,29.98,North,8,3.2,5.0,86,0.00,OVC,,0.00,WeatherDisplay:10.37,2013-10-09 12:28:00,
2013-10-09 08:33:00,73.1,68.7,29.98,NNE,16,4.8,8.1,86,0.00,OVC,,0.00,WeatherDisplay:10.37,2013-10-09 12:33:00,
2013-10-09 08:38:00,73.1,69.0,29.98,NW,308,4.0,5.8,87,0.00,OVC,,0.00,WeatherDisplay:10.37,2013-10-09 12:38:00,
2013-10-09 08:43:00,73.2,68.8,29.98,NE,49,4.8,8.1,86,0.00,OVC,,0.00,WeatherDisplay:10.37,2013-10-09 12:43:00,
2013-10-09 08:48:00,73.1,68.7,29.99,NE,41,3.6,6.0,86,0.00,OVC,,0.00,WeatherDisplay:10.37,2013-10-09 12:48:00,
2013-10-09 08:53:00,73.1,69.0,29.99,North,350,1.8,3.5,87,0.00,OVC,,0.00,WeatherDisplay:10.37,2013-10-09 12:53:00,
2013-10-09 08:58:00,73.0,68.9,29.99,NE,40,3.4,5.8,87,0.00,OVC,,0.00,WeatherDisplay:10.37,2013-10-09 12:58:00,
2013-10-09 09:03:00,72.9,68.8,29.99,NNE,13,3.5,6.9,87,0.00,OVC,,0.00,WeatherDisplay:10.37,2013-10-09 13:03:00,
2013-10-09 09:08:00,73.0,68.9,29.99,NE,44,5.4,6.9,87,0.00,OVC,,0.00,WeatherDisplay:10.37,2013-10-09 13:08:00,
2013-10-09 09:13:00,73.0,68.9,30.00,North,360,3.7,6.9,87,0.00,OVC,,0.00,WeatherDisplay:10.37,2013-10-09 13:13:00,
2013-10-09 09:18:00,72.9,68.8,30.00,North,9,3.4,4.6,87,0.00,OVC,,0.00,WeatherDisplay:10.37,2013-10-09 13:18:00,
2013-10-09 09:23:00,73.0,68.9,30.00,NNE,23,4.1,6.9,87,0.00,OVC,,0.00,WeatherDisplay:10.37,2013-10-09 13:23:00,
2013-10-09 09:28:00,73.1,69.0,30.00,NE,34,5.3,6.9,87,0.00,OVC,,0.00,WeatherDisplay:10.37,2013-10-09 13:28:00,
2013-10-09 09:33:00,73.0,68.9,30.00,NNE,12,1.0,4.6,87,0.00,OVC,,0.00,WeatherDisplay:10.37,2013-10-09 13:33:00,
2013-10-09 09:38:00,73.0,68.9,30.00,NNE,15,3.2,5.8,87,0.00,OVC,,0.00,WeatherDisplay:10.37,2013-10-09 13:38:00,
2013-10-09 09:43:00,72.9,68.5,30.00,NE,51,3.9,8.1,86,0.00,OVC,,0.00,WeatherDisplay:10.37,2013-10-09 13:43:00,
2013-10-09 09:48:00,73.2,68.8,30.01,NNE,33,3.0,4.6,86,0.00,OVC,,0.00,WeatherDisplay:10.37,2013-10-09 13:48:00,
2013-10-09 09:53:00,73.3,68.5,30.01,NNE,27,4.1,4.6,85,0.00,OVC,,0.00,WeatherDisplay:10.37,2013-10-09 13:53:00,
2013-10-09 09:58:00,73.7,69.2,30.01,NNE,13,0.4,2.3,86,0.00,OVC,,0.00,WeatherDisplay:10.37,2013-10-09 13:58:00,
2013-10-09 10:03:00,73.9,68.8,30.01,NNW,342,3.9,5.8,84,0.00,OVC,,0.00,WeatherDisplay:10.37,2013-10-09 14:03:00,
2013-10-09 10:08:00,74.0,69.2,30.01,NE,46,2.1,3.5,85,0.00,OVC,,0.00,WeatherDisplay:10.37,2013-10-09 14:08:00,
2013-10-09 10:13:00,73.9,68.8,30.01,NNE,24,1.3,3.5,84,0.00,OVC,,0.00,WeatherDisplay:10.37,2013-10-09 14:13:00,
2013-10-09 10:18:00,74.0,68.5,30.01,North,4,7.1,11.5,83,0.00,OVC,,0.00,WeatherDisplay:10.37,2013-10-09 14:18:00,
2013-10-09 10:23:00,73.8,68.7,30.01,NE,46,4.5,10.4,84,0.00,OVC,,0.00,WeatherDisplay:10.37,2013-10-09 14:23:00,
2013-10-09 10:28:00,73.8,68.7,30.01,NE,51,3.4,5.8,84,0.00,OVC,,0.00,WeatherDisplay:10.37,2013-10-09 14:28:00,
2013-10-09 10:33:00,74.0,68.5,30.01,NNE,27,5.5,8.1,83,0.00,OVC,,0.00,WeatherDisplay:10.37,2013-10-09 14:33:00,
2013-10-09 10:38:00,74.2,68.3,30.01,North,350,5.9,8.1,82,0.00,OVC,,0.00,WeatherDisplay:10.37,2013-10-09 14:38:00,
2013-10-09 10:43:00,74.4,68.5,30.01,North,353,3.8,5.8,82,0.00,OVC,,0.00,WeatherDisplay:10.37,2013-10-09 14:43:00,
2013-10-09 10:48:00,74.7,68.8,30.01,ENE,72,2.9,3.5,82,0.00,OVC,,0.00,WeatherDisplay:10.37,2013-10-09 14:48:00,
2013-10-09 10:53:00,75.0,68.8,30.01,NE,41,5.7,8.1,81,0.00,OVC,,0.00,WeatherDisplay:10.37,2013-10-09 14:53:00,
2013-10-09 10:58:00,74.6,68.7,30.01,NE,39,1.6,5.8,82,0.00,OVC,,0.00,WeatherDisplay:10.37,2013-10-09 14:58:00,
2013-10-09 11:03:00,74.6,68.7,30.01,North,352,3.2,6.9,82,0.00,OVC,,0.00,WeatherDisplay:10.37,2013-10-09 15:03:00,
2013-10-09 11:08:00,74.5,68.6,30.01,NNE,18,4.6,5.8,82,0.00,OVC,,0.00,WeatherDisplay:10.37,2013-10-09 15:08:00,
2013-10-09 11:13:00,74.5,68.6,30.01,NE,49,2.7,4.6,82,0.00,OVC,,0.00,WeatherDisplay:10.37,2013-10-09 15:13:00,
2013-10-09 11:18:00,74.5,69.0,30.01,East,90,0.2,1.2,83,0.00,OVC,,0.00,WeatherDisplay:10.37,2013-10-09 15:18:00,
2013-10-09 11:23:00,74.6,68.7,30.01,NNE,33,2.2,5.8,82,0.00,OVC,,0.00,WeatherDisplay:10.37,2013-10-09 15:23:00,
2013-10-09 11:28:00,74.3,68.4,30.02,NW,323,0.9,4.0,82,0.00,OVC,,0.00,WeatherDisplay:10.37,2013-10-09 15:28:00,
2013-10-09 11:33:00,74.3,68.8,30.02,ESE,122,0.0,0.0,83,0.00,OVC,,0.00,WeatherDisplay:10.37,2013-10-09 15:33:00,
2013-10-09 11:38:00,74.6,69.1,30.02,NE,53,0.7,3.5,83,0.00,OVC,,0.00,WeatherDisplay:10.37,2013-10-09 15:38:00,
2013-10-09 11:43:00,74.6,69.1,30.02,NNE,30,1.5,3.5,83,0.00,OVC,,0.00,WeatherDisplay:10.37,2013-10-09 15:43:00,
2013-10-09 11:48:00,74.5,69.0,30.02,ESE,118,2.9,5.8,83,0.00,OVC,,0.00,WeatherDisplay:10.37,2013-10-09 15:48:00,
2013-10-09 11:53:00,74.4,68.9,30.02,NNE,27,1.6,3.5,83,0.00,OVC,,0.00,WeatherDisplay:10.37,2013-10-09 15:53:00,
2013-10-09 11:58:00,74.4,68.9,30.02,NE,39,2.7,4.6,83,0.00,OVC,,0.00,WeatherDisplay:10.37,2013-10-09 15:58:00,
2013-10-09 12:03:00,74.6,69.1,30.02,North,6,2.3,3.5,83,0.00,OVC,,0.00,WeatherDisplay:10.37,2013-10-09 16:03:00,
2013-10-09 12:08:00,74.6,68.7,30.02,NNE,20,2.6,3.5,82,0.00,OVC,,0.00,WeatherDisplay:10.37,2013-10-09 16:08:00,
2013-10-09 12:13:00,74.5,69.3,30.02,NE,36,2.6,3.5,84,0.00,OVC,,0.00,WeatherDisplay:10.37,2013-10-09 16:13:00,
2013-10-09 12:18:00,74.2,68.7,30.02,NE,39,2.2,3.5,83,0.00,OVC,,0.00,WeatherDisplay:10.37,2013-10-09 16:18:00,
2013-10-09 12:23:00,74.1,69.0,30.02,NE,37,1.8,3.5,84,0.00,OVC,,0.00,WeatherDisplay:10.37,2013-10-09 16:23:00,
2013-10-09 12:28:00,74.1,69.0,30.02,NNE,25,3.5,6.0,84,0.00,OVC,,0.00,WeatherDisplay:10.37,2013-10-09 16:28:00,
2013-10-09 12:33:00,74.1,69.0,30.02,NE,41,2.4,4.0,84,0.00,OVC,,0.00,WeatherDisplay:10.37,2013-10-09 16:33:00,
2013-10-09 12:38:00,74.2,69.1,30.02,North,359,1.1,2.3,84,0.00,OVC,,0.00,WeatherDisplay:10.37,2013-10-09 16:38:00,
2013-10-09 12:43:00,74.5,69.3,30.01,NE,40,3.3,6.0,84,0.00,OVC,,0.00,WeatherDisplay:10.37,2013-10-09 16:43:00,
2013-10-09 12:48:00,74.3,68.8,30.01,NE,46,3.2,6.0,83,0.00,OVC,,0.00,WeatherDisplay:10.37,2013-10-09 16:48:00,
2013-10-09 12:53:00,74.4,69.2,30.01,North,11,2.8,3.5,84,0.00,OVC,,0.00,WeatherDisplay:10.37,2013-10-09 16:53:00,
2013-10-09 12:58:00,74.5,69.0,30.01,NNE,30,2.5,3.5,83,0.00,OVC,,0.00,WeatherDisplay:10.37,2013-10-09 16:58:00,
2013-10-09 13:03:00,74.6,69.1,30.01,NNE,19,2.9,3.5,83,0.00,OVC,,0.00,WeatherDisplay:10.37,2013-10-09 17:03:00,
2013-10-09 13:08:00,74.8,69.3,30.00,NNW,347,3.5,4.6,83,0.00,OVC,,0.00,WeatherDisplay:10.37,2013-10-09 17:08:00,
2013-10-09 13:13:00,74.9,69.4,30.00,NNE,20,2.2,6.0,83,0.00,OVC,,0.00,WeatherDisplay:10.37,2013-10-09 17:13:00,
2013-10-09 13:18:00,75.0,69.5,30.00,NNE,27,1.9,3.5,83,0.00,OVC,,0.00,WeatherDisplay:10.37,2013-10-09 17:18:00,
2013-10-09 13:23:00,75.1,69.6,30.00,NNE,13,2.2,4.6,83,0.00,OVC,,0.00,WeatherDisplay:10.37,2013-10-09 17:23:00,
2013-10-09 13:28:00,75.1,69.2,30.00,NE,41,2.1,4.0,82,0.00,OVC,,0.00,WeatherDisplay:10.37,2013-10-09 17:28:00,
2013-10-09 13:33:00,75.0,69.5,30.00,NE,47,2.0,5.8,83,0.00,OVC,,0.00,WeatherDisplay:10.37,2013-10-09 17:33:00,
2013-10-09 13:38:00,74.9,69.4,29.99,NE,44,2.6,3.5,83,0.00,OVC,,0.00,WeatherDisplay:10.37,2013-10-09 17:38:00,
2013-10-09 13:43:00,75.0,69.5,29.99,ENE,60,1.0,3.5,83,0.00,OVC,,0.00,WeatherDisplay:10.37,2013-10-09 17:43:00,
2013-10-09 13:48:00,75.1,68.9,29.99,NNE,20,2.8,5.8,81,0.00,OVC,,0.00,WeatherDisplay:10.37,2013-10-09 17:48:00,
2013-10-09 13:53:00,75.4,69.2,29.99,NE,50,2.1,4.0,81,0.00,OVC,,0.00,WeatherDisplay:10.37,2013-10-09 17:53:00,
2013-10-09 13:58:00,75.4,69.5,29.99,North,1,1.7,3.5,82,0.00,OVC,,0.00,WeatherDisplay:10.37,2013-10-09 17:58:00,
2013-10-09 14:03:00,75.7,69.5,29.99,North,5,3.4,7.0,81,0.00,OVC,,0.00,WeatherDisplay:10.37,2013-10-09 18:03:00,
2013-10-09 14:08:00,75.5,69.3,29.99,NNE,12,3.0,4.6,81,0.00,OVC,,0.00,WeatherDisplay:10.37,2013-10-09 18:08:00,
2013-10-09 14:13:00,75.5,69.6,29.99,NNE,19,2.5,5.0,82,0.00,OVC,,0.00,WeatherDisplay:10.37,2013-10-09 18:13:00,
2013-10-09 14:18:00,75.5,69.3,29.99,North,356,4.0,6.9,81,0.00,OVC,,0.00,WeatherDisplay:10.37,2013-10-09 18:18:00,
2013-10-09 14:23:00,75.8,69.6,29.99,NNE,16,0.7,3.5,81,0.00,OVC,,0.00,WeatherDisplay:10.37,2013-10-09 18:23:00,
2013-10-09 14:28:00,75.9,69.3,29.98,NE,34,0.4,1.2,80,0.00,OVC,,0.00,WeatherDisplay:10.37,2013-10-09 18:28:00,
2013-10-09 14:33:00,76.2,69.2,29.98,NE,37,0.2,1.2,79,0.00,OVC,,0.00,WeatherDisplay:10.37,2013-10-09 18:33:00,
2013-10-09 14:38:00,76.6,69.6,29.98,NNW,342,2.0,3.5,79,0.00,OVC,,0.00,WeatherDisplay:10.37,2013-10-09 18:38:00,
2013-10-09 14:43:00,76.6,69.6,29.98,NW,323,1.4,3.5,79,0.00,OVC,,0.00,WeatherDisplay:10.37,2013-10-09 18:43:00,
2013-10-09 14:48:00,76.7,69.7,29.98,NNW,340,0.9,3.5,79,0.00,OVC,,0.00,WeatherDisplay:10.37,2013-10-09 18:48:00,
2013-10-09 14:53:00,76.5,69.5,29.98,NNW,332,3.1,5.8,79,0.00,OVC,,0.00,WeatherDisplay:10.37,2013-10-09 18:53:00,
2013-10-09 14:58:00,76.3,69.7,29.98,NNW,347,3.0,4.6,80,0.00,OVC,,0.00,WeatherDisplay:10.37,2013-10-09 18:58:00,
2013-10-09 15:03:00,76.4,69.8,29.98,NNE,20,3.8,5.8,80,0.00,OVC,,0.00,WeatherDisplay:10.37,2013-10-09 19:03:00,
2013-10-09 15:08:00,76.3,69.7,29.98,North,350,3.6,5.8,80,0.00,OVC,,0.00,WeatherDisplay:10.37,2013-10-09 19:08:00,
2013-10-09 15:13:00,76.6,70.0,29.97,NNW,348,1.6,3.5,80,0.00,OVC,,0.00,WeatherDisplay:10.37,2013-10-09 19:13:00,
2013-10-09 15:18:00,76.9,69.9,29.97,North,349,3.0,5.8,79,0.00,OVC,,0.00,WeatherDisplay:10.37,2013-10-09 19:18:00,
2013-10-09 15:23:00,76.8,69.8,29.97,NE,40,3.7,6.0,79,0.00,OVC,,0.00,WeatherDisplay:10.37,2013-10-09 19:23:00,
2013-10-09 15:28:00,77.1,70.1,29.97,NW,316,4.0,6.9,79,0.00,OVC,,0.00,WeatherDisplay:10.37,2013-10-09 19:28:00,
2013-10-09 15:33:00,77.1,70.1,29.97,NE,49,3.3,5.8,79,0.00,OVC,,0.00,WeatherDisplay:10.37,2013-10-09 19:33:00,
2013-10-09 15:38:00,76.9,69.5,29.97,NW,315,3.4,6.9,78,0.00,OVC,,0.00,WeatherDisplay:10.37,2013-10-09 19:38:00,
2013-10-09 15:43:00,76.8,69.4,29.97,NNE,19,4.6,5.8,78,0.00,OVC,,0.00,WeatherDisplay:10.37,2013-10-09 19:43:00,
2013-10-09 15:48:00,76.9,69.9,29.97,North,8,3.5,3.5,79,0.00,OVC,,0.00,WeatherDisplay:10.37,2013-10-09 19:48:00,
2013-10-09 15:53:00,77.3,69.9,29.97,NE,43,3.3,8.0,78,0.00,OVC,,0.00,WeatherDisplay:10.37,2013-10-09 19:53:00,
2013-10-09 15:58:00,77.5,69.7,29.97,North,353,3.7,5.8,77,0.00,OVC,,0.00,WeatherDisplay:10.37,2013-10-09 19:58:00,
2013-10-09 16:03:00,77.1,69.7,29.97,North,352,3.7,8.1,78,0.00,OVC,,0.00,WeatherDisplay:10.37,2013-10-09 20:03:00,
2013-10-09 16:08:00,77.2,69.8,29.97,North,11,3.5,5.8,78,0.00,OVC,,0.00,WeatherDisplay:10.37,2013-10-09 20:08:00,
2013-10-09 16:13:00,77.3,69.5,29.97,NNE,31,3.4,8.1,77,0.00,OVC,,0.00,WeatherDisplay:10.37,2013-10-09 20:13:00,
2013-10-09 16:18:00,77.4,69.6,29.97,NNE,20,3.4,5.8,77,0.00,OVC,,0.00,WeatherDisplay:10.37,2013-10-09 20:18:00,
2013-10-09 16:23:00,77.7,69.5,29.97,North,8,4.6,9.2,76,0.00,OVC,,0.00,WeatherDisplay:10.37,2013-10-09 20:23:00,
2013-10-09 16:28:00,77.5,69.7,29.96,North,358,3.5,8.1,77,0.00,OVC,,0.00,WeatherDisplay:10.37,2013-10-09 20:28:00,
2013-10-09 16:33:00,77.7,69.5,29.96,NNW,345,3.6,6.9,76,0.00,OVC,,0.00,WeatherDisplay:10.37,2013-10-09 20:33:00,
2013-10-09 16:38:00,78.0,69.8,29.96,NE,40,4.3,5.8,76,0.00,OVC,,0.00,WeatherDisplay:10.37,2013-10-09 20:38:00,
2013-10-09 16:43:00,78.3,69.7,29.96,NNW,345,5.1,6.9,75,0.00,OVC,,0.00,WeatherDisplay:10.37,2013-10-09 20:43:00,
2013-10-09 16:48:00,78.3,70.1,29.96,NNW,328,2.7,4.6,76,0.00,OVC,,0.00,WeatherDisplay:10.37,2013-10-09 20:48:00,
2013-10-09 16:53:00,78.8,70.2,29.96,NW,306,1.5,3.5,75,0.00,OVC,,0.00,WeatherDisplay:10.37,2013-10-09 20:53:00,
2013-10-09 16:58:00,78.8,70.2,29.96,North,4,2.4,5.8,75,0.00,OVC,,0.00,WeatherDisplay:10.37,2013-10-09 20:58:00,
2013-10-09 17:03:00,78.4,69.8,29.96,WNW,290,6.6,9.2,75,0.00,BKN,,0.00,WeatherDisplay:10.37,2013-10-09 21:03:00,
2013-10-09 17:08:00,78.4,70.2,29.96,WNW,283,1.4,3.5,76,0.00,BKN,,0.00,WeatherDisplay:10.37,2013-10-09 21:08:00,
2013-10-09 17:13:00,78.8,70.2,29.96,NNE,16,2.1,3.5,75,0.00,BKN,,0.00,WeatherDisplay:10.37,2013-10-09 21:13:00,
2013-10-09 17:18:00,78.5,69.9,29.96,NNW,332,5.7,9.2,75,0.00,BKN,,0.00,WeatherDisplay:10.37,2013-10-09 21:18:00,
2013-10-09 17:23:00,78.2,70.0,29.97,NNW,333,2.4,4.0,76,0.00,BKN,,0.00,WeatherDisplay:10.37,2013-10-09 21:23:00,
2013-10-09 17:28:00,77.9,69.7,29.97,NE,43,3.6,5.0,76,0.00,BKN,,0.00,WeatherDisplay:10.37,2013-10-09 21:28:00,
2013-10-09 17:33:00,77.8,69.2,29.96,NNE,20,6.5,9.2,75,0.00,BKN,,0.00,WeatherDisplay:10.37,2013-10-09 21:33:00,
2013-10-09 17:38:00,78.0,69.8,29.96,North,349,3.1,4.6,76,0.00,BKN,,0.00,WeatherDisplay:10.37,2013-10-09 21:38:00,
2013-10-09 17:43:00,78.0,69.8,29.96,NE,40,3.2,8.1,76,0.00,BKN,,0.00,WeatherDisplay:10.37,2013-10-09 21:43:00,
2013-10-09 17:48:00,77.9,69.7,29.96,NW,311,5.4,8.1,76,0.00,BKN,,0.00,WeatherDisplay:10.37,2013-10-09 21:48:00,
2013-10-09 17:53:00,78.1,69.9,29.96,NNW,333,3.0,4.6,76,0.00,BKN,,0.00,WeatherDisplay:10.37,2013-10-09 21:53:00,
2013-10-09 17:58:00,78.1,69.9,29.96,NW,322,2.6,3.5,76,0.00,BKN,,0.00,WeatherDisplay:10.37,2013-10-09 21:58:00,
2013-10-09 18:03:00,77.9,69.3,29.96,NE,34,5.4,9.2,75,0.00,OVC,,0.00,WeatherDisplay:10.37,2013-10-09 22:03:00,
2013-10-09 18:08:00,78.0,69.4,29.96,NNW,335,4.3,8.1,75,0.00,OVC,,0.00,WeatherDisplay:10.37,2013-10-09 22:08:00,
2013-10-09 18:13:00,78.0,69.4,29.96,NNE,12,3.7,4.6,75,0.00,OVC,,0.00,WeatherDisplay:10.37,2013-10-09 22:13:00,
2013-10-09 18:18:00,77.7,69.1,29.96,North,357,3.8,6.9,75,0.00,OVC,,0.00,WeatherDisplay:10.37,2013-10-09 22:18:00,
2013-10-09 18:23:00,77.7,69.5,29.96,NNE,33,2.1,3.5,76,0.00,OVC,,0.00,WeatherDisplay:10.37,2013-10-09 22:23:00,
2013-10-09 18:28:00,77.5,69.3,29.96,ENE,57,2.3,3.5,76,0.00,OVC,,0.00,WeatherDisplay:10.37,2013-10-09 22:28:00,
2013-10-09 18:33:00,77.3,69.1,29.96,NNW,327,1.7,3.5,76,0.00,OVC,,0.00,WeatherDisplay:10.37,2013-10-09 22:33:00,
2013-10-09 18:38:00,77.3,68.8,29.97,NW,326,3.4,5.8,75,0.00,OVC,,0.00,WeatherDisplay:10.37,2013-10-09 22:38:00,
2013-10-09 18:43:00,77.1,68.9,29.97,North,8,1.9,3.5,76,0.00,OVC,,0.00,WeatherDisplay:10.37,2013-10-09 22:43:00,
2013-10-09 18:48:00,76.9,68.8,29.97,NE,41,1.8,3.5,76,0.00,OVC,,0.00,WeatherDisplay:10.37,2013-10-09 22:48:00,
2013-10-09 18:53:00,76.7,68.6,29.97,North,4,2.9,3.5,76,0.00,OVC,,0.00,WeatherDisplay:10.37,2013-10-09 22:53:00,
2013-10-09 18:58:00,76.7,68.9,29.96,NE,34,0.4,1.2,77,0.00,OVC,,0.00,WeatherDisplay:10.37,2013-10-09 22:58:00,
2013-10-09 19:03:00,76.6,68.8,29.96,NNE,20,2.0,3.5,77,0.00,FEW,,0.00,WeatherDisplay:10.37,2013-10-09 23:03:00,
2013-10-09 19:08:00,76.4,69.0,29.96,NNW,345,0.2,1.2,78,0.00,FEW,,0.00,WeatherDisplay:10.37,2013-10-09 23:08:00,
2013-10-09 19:13:00,76.0,68.6,29.96,North,5,0.1,1.2,78,0.00,FEW,,0.00,WeatherDisplay:10.37,2013-10-09 23:13:00,
2013-10-09 19:18:00,75.8,68.8,29.97,NNE,25,0.0,0.0,79,0.00,FEW,,0.00,WeatherDisplay:10.37,2013-10-09 23:18:00,
2013-10-09 19:23:00,75.7,68.7,29.96,NNE,25,0.8,2.3,79,0.00,FEW,,0.00,WeatherDisplay:10.37,2013-10-09 23:23:00,
2013-10-09 19:28:00,75.7,69.1,29.96,NNE,27,0.0,1.2,80,0.00,FEW,,0.00,WeatherDisplay:10.37,2013-10-09 23:28:00,
2013-10-09 19:33:00,75.5,68.9,29.96,NNE,27,0.0,0.0,80,0.00,FEW,,0.00,WeatherDisplay:10.37,2013-10-09 23:33:00,
2013-10-09 19:38:00,75.1,68.9,29.97,NNE,27,0.0,0.0,81,0.00,FEW,,0.00,WeatherDisplay:10.37,2013-10-09 23:38:00,
2013-10-09 19:43:00,74.6,68.4,29.97,NNE,27,0.0,0.0,81,0.00,FEW,,0.00,WeatherDisplay:10.37,2013-10-09 23:43:00,
2013-10-09 19:48:00,74.2,68.3,29.97,NNE,27,0.0,0.0,82,0.00,FEW,,0.00,WeatherDisplay:10.37,2013-10-09 23:48:00,
2013-10-09 19:53:00,73.7,68.2,29.97,NNE,27,0.0,0.0,83,0.00,FEW,,0.00,WeatherDisplay:10.37,2013-10-09 23:53:00,
2013-10-09 19:58:00,73.5,68.4,29.96,NNE,27,0.0,0.0,84,0.00,FEW,,0.00,WeatherDisplay:10.37,2013-10-09 23:58:00,
2013-10-09 20:03:00,73.3,68.5,29.97,NNE,27,0.0,0.0,85,0.00,CLR,,0.00,WeatherDisplay:10.37,2013-10-10 00:03:00,
2013-10-09 20:08:00,73.1,68.3,29.97,NNE,27,0.0,0.0,85,0.00,CLR,,0.00,WeatherDisplay:10.37,2013-10-10 00:08:00,
2013-10-09 20:13:00,72.9,68.5,29.97,NNE,27,0.0,0.0,86,0.00,CLR,,0.00,WeatherDisplay:10.37,2013-10-10 00:13:00,
2013-10-09 20:18:00,72.6,68.2,29.97,NNE,27,0.0,0.0,86,0.00,CLR,,0.00,WeatherDisplay:10.37,2013-10-10 00:18:00,
2013-10-09 20:23:00,72.2,67.8,29.97,NNE,27,0.0,0.0,86,0.00,CLR,,0.00,WeatherDisplay:10.37,2013-10-10 00:23:00,
2013-10-09 20:28:00,71.8,67.7,29.97,NNE,27,0.0,0.0,87,0.00,CLR,,0.00,WeatherDisplay:10.37,2013-10-10 00:28:00,
2013-10-09 20:33:00,71.6,67.9,29.97,NNE,27,0.0,0.0,88,0.00,CLR,,0.00,WeatherDisplay:10.37,2013-10-10 00:33:00,
2013-10-09 20:38:00,71.9,68.5,29.97,NNE,27,0.0,1.2,89,0.00,CLR,,0.00,WeatherDisplay:10.37,2013-10-10 00:38:00,
2013-10-09 20:43:00,72.5,68.7,29.97,NNE,27,0.0,0.0,88,0.00,CLR,,0.00,WeatherDisplay:10.37,2013-10-10 00:43:00,
2013-10-09 20:48:00,72.9,68.8,29.97,NE,37,0.0,0.0,87,0.00,CLR,,0.00,WeatherDisplay:10.37,2013-10-10 00:48:00,
2013-10-09 20:53:00,73.0,68.6,29.97,North,357,0.0,0.0,86,0.00,CLR,,0.00,WeatherDisplay:10.37,2013-10-10 00:53:00,
2013-10-09 20:58:00,73.0,68.6,29.97,NNE,27,0.0,1.2,86,0.00,CLR,,0.00,WeatherDisplay:10.37,2013-10-10 00:58:00,
2013-10-09 21:03:00,73.1,68.7,29.97,NE,37,0.5,1.0,86,0.00,CLR,,0.00,WeatherDisplay:10.37,2013-10-10 01:03:00,
2013-10-09 21:08:00,73.2,68.4,29.98,NE,48,1.1,3.5,85,0.00,CLR,,0.00,WeatherDisplay:10.37,2013-10-10 01:08:00,
2013-10-09 21:13:00,73.6,68.5,29.98,North,352,3.0,5.8,84,0.00,CLR,,0.00,WeatherDisplay:10.37,2013-10-10 01:13:00,
2013-10-09 21:18:00,73.8,68.3,29.98,NNE,27,2.1,3.5,83,0.00,CLR,,0.00,WeatherDisplay:10.37,2013-10-10 01:18:00,
2013-10-09 21:23:00,73.9,68.4,29.98,North,6,1.3,3.5,83,0.00,CLR,,0.00,WeatherDisplay:10.37,2013-10-10 01:23:00,
2013-10-09 21:28:00,73.9,68.4,29.98,NNE,30,1.4,3.5,83,0.00,CLR,,0.00,WeatherDisplay:10.37,2013-10-10 01:28:00,
2013-10-09 21:33:00,73.7,68.2,29.99,North,1,3.5,5.8,83,0.00,CLR,,0.00,WeatherDisplay:10.37,2013-10-10 01:33:00,
2013-10-09 21:38:00,73.5,68.0,29.99,NNE,33,3.8,4.6,83,0.00,CLR,,0.00,WeatherDisplay:10.37,2013-10-10 01:38:00,
2013-10-09 21:43:00,73.3,68.2,29.99,NNE,27,2.8,3.5,84,0.00,CLR,,0.00,WeatherDisplay:10.37,2013-10-10 01:43:00,
2013-10-09 21:48:00,73.2,68.1,29.99,NNE,27,3.8,6.9,84,0.00,CLR,,0.00,WeatherDisplay:10.37,2013-10-10 01:48:00,
2013-10-09 21:53:00,73.1,68.0,29.99,NE,37,3.6,8.0,84,0.00,CLR,,0.00,WeatherDisplay:10.37,2013-10-10 01:53:00,
2013-10-09 21:58:00,72.8,68.0,29.99,NE,43,3.8,4.6,85,0.00,CLR,,0.00,WeatherDisplay:10.37,2013-10-10 01:58:00,
2013-10-09 22:03:00,72.6,67.8,30.00,NNE,32,2.7,6.0,85,0.00,CLR,,0.00,WeatherDisplay:10.37,2013-10-10 02:03:00,
2013-10-09 22:08:00,72.4,68.0,30.00,NE,56,3.4,5.8,86,0.00,CLR,,0.00,WeatherDisplay:10.37,2013-10-10 02:08:00,
2013-10-09 22:13:00,72.3,67.9,30.00,NE,41,2.2,5.0,86,0.00,CLR,,0.00,WeatherDisplay:10.37,2013-10-10 02:13:00,
2013-10-09 22:18:00,72.1,67.7,30.00,NNE,33,3.4,4.6,86,0.00,CLR,,0.00,WeatherDisplay:10.37,2013-10-10 02:18:00,
2013-10-09 22:23:00,71.8,67.4,30.00,ENE,67,3.2,3.5,86,0.00,CLR,,0.00,WeatherDisplay:10.37,2013-10-10 02:23:00,
2013-10-09 22:28:00,71.6,67.2,30.01,NE,48,5.4,9.2,86,0.00,CLR,,0.00,WeatherDisplay:10.37,2013-10-10 02:28:00,
2013-10-09 22:33:00,71.4,67.0,30.01,NE,47,3.6,8.1,86,0.00,CLR,,0.00,WeatherDisplay:10.37,2013-10-10 02:33:00,
2013-10-09 22:38:00,71.2,66.8,30.01,NE,37,5.7,9.2,86,0.00,CLR,,0.00,WeatherDisplay:10.37,2013-10-10 02:38:00,
2013-10-09 22:43:00,71.1,66.7,30.01,NNE,33,2.7,4.6,86,0.00,CLR,,0.00,WeatherDisplay:10.37,2013-10-10 02:43:00,
2013-10-09 22:48:00,70.9,66.5,30.01,North,358,2.8,5.8,86,0.00,CLR,,0.00,WeatherDisplay:10.37,2013-10-10 02:48:00,
2013-10-09 22:53:00,70.7,66.6,30.02,North,8,3.6,6.9,87,0.00,CLR,,0.00,WeatherDisplay:10.37,2013-10-10 02:53:00,
2013-10-09 22:58:00,70.5,66.4,30.02,NNE,24,2.3,4.6,87,0.00,CLR,,0.00,WeatherDisplay:10.37,2013-10-10 02:58:00,
2013-10-09 23:03:00,70.2,66.1,30.02,NE,40,4.8,9.2,87,0.00,CLR,,0.00,WeatherDisplay:10.37,2013-10-10 03:03:00,
2013-10-09 23:08:00,70.1,66.4,30.02,North,4,2.3,3.5,88,0.00,CLR,,0.00,WeatherDisplay:10.37,2013-10-10 03:08:00,
2013-10-09 23:13:00,69.9,66.2,30.02,NNE,24,2.4,4.0,88,0.00,CLR,,0.00,WeatherDisplay:10.37,2013-10-10 03:13:00,
2013-10-09 23:18:00,69.7,66.0,30.02,NE,37,3.6,3.6,88,0.00,CLR,,0.00,WeatherDisplay:10.37,2013-10-10 03:18:00,
2013-10-09 23:23:00,69.6,65.9,30.02,NNE,25,2.6,3.5,88,0.00,CLR,,0.00,WeatherDisplay:10.37,2013-10-10 03:23:00,
2013-10-09 23:28:00,69.4,66.0,30.02,NE,43,3.0,4.6,89,0.00,CLR,,0.00,WeatherDisplay:10.37,2013-10-10 03:28:00,
2013-10-09 23:33:00,69.3,65.9,30.02,NE,37,3.3,4.6,89,0.00,CLR,,0.00,WeatherDisplay:10.37,2013-10-10 03:33:00,
2013-10-09 23:38:00,69.2,65.8,30.01,NNE,30,0.6,1.2,89,0.00,CLR,,0.00,WeatherDisplay:10.37,2013-10-10 03:38:00,
2013-10-09 23:43:00,69.0,65.9,30.01,NE,51,1.2,3.5,90,0.00,CLR,,0.00,WeatherDisplay:10.37,2013-10-10 03:43:00,
2013-10-09 23:48:00,68.9,65.8,30.02,NNW,338,1.0,3.5,90,0.00,CLR,,0.00,WeatherDisplay:10.37,2013-10-10 03:48:00,
2013-10-09 23:53:00,68.8,65.7,30.02,NE,40,3.3,6.9,90,0.00,CLR,,0.00,WeatherDisplay:10.37,2013-10-10 03:53:00,
2013-10-09 23:58:00,68.7,65.6,30.01,NE,41,0.3,3.5,90,0.00,CLR,,0.00,WeatherDisplay:10.37,2013-10-10 03:58:00,